Flag for Costa Rica Weather past 2 weeks in Alajuela, Costa Rica

Now
84 °F

Partly sunny.


Feels Like: 86 °F
Forecast: 70 / 81 °F
Wind: 7 mph from Southeast

Location: Juan Santamaria

Current Time: May 25, 2015 at 11:38:47 AM

Latest Report: May 25, 2015 at 11:00 AM


Visibility: N/A

Pressure: 30.02 "Hg

Humidity: 51%

Dew point: 64 °F

Location of AlajuelaLocation

Historic Weather in Alajuela — Graph

°F

Alajuela temperature yesterday

Maximum temperature yesterday: 75 °F (at 8:00 AM)
Minimum temperature yesterday: 68 °F (at 9:00 PM)
Average temperature yesterday: 72 °F

Past Weeks' High & Low Weather Summary

 TemperatureHumidityPressure
High88 °F (May 10, 1:00 PM)94% (May 16, 2:00 PM)30.11 "Hg (May 16, 2:00 PM)
Low64 °F (May 16, 9:00 PM)35% (May 15, 1:00 PM)27.71 "Hg (May 17, 2:00 PM)
Average75 °F67%29.99 "Hg
* Reported May 10 10:00 AM — May 25 10:00 AM, Alajuela, Weather by CustomWeather, © 2015

Note: Actual official high and low records may vary slightly from our data, if they occured in-between our weather recording intervals... More about our weather records

Advertising

Alajuela weather history for previous 24 hours

 ConditionsComfort  
Time TempWeatherWind HumidityBarometerVisibility
10:00 AM
Mon, May 25
81 °FPartly sunny.9 mph58%30.04 "HgN/A
9:00 AM77 °FSunny.13 mph65%30.05 "Hg10 mi
8:00 AM75 °FScattered clouds.9 mph69%30.04 "HgN/A
7:00 AM73 °FScattered clouds.9 mph69%30.04 "HgN/A
6:00 AM70 °FBroken clouds.10 mph78%30.01 "HgN/A
5:00 AM70 °FPassing clouds.8 mph83%29.98 "HgN/A
4:00 AM70 °FClear.7 mph83%29.98 "Hg10 mi
3:00 AM70 °FClear.7 mph83%30.00 "Hg10 mi
2:00 AM70 °FClear.8 mph83%30.02 "Hg10 mi
1:00 AM68 °FClear.3 mph88%30.04 "Hg10 mi
12:00 AM68 °FClear.8 mph94%30.06 "Hg10 mi
11:00 PM
Sun, May 24
68 °FLight rain. Overcast.3 mph94%30.08 "HgN/A
9:00 PM68 °FRain. Passing clouds.5 mph94%30.07 "HgN/A
8:00 PM72 °FScattered showers. Passing clouds.8 mph78%30.05 "HgN/A
7:00 PM72 °FPassing clouds.8 mph73%30.01 "HgN/A
6:00 PM73 °FPartly cloudy.10 mph69%29.99 "HgN/A
5:00 PM73 °FOvercast.5 mph69%29.97 "HgN/A
4:00 PM73 °FSunny.6 mph74%29.97 "Hg10 mi
3:00 PM72 °FSunny.8 mph78%29.98 "Hg10 mi
2:00 PM70 °FLight rain. Clear.6 mph83%30.03 "HgN/A
1:00 PM72 °FLight rain. Clear.5 mph83%30.05 "HgN/A
12:00 PM70 °FLight rain. Overcast.8 mph88%30.06 "HgN/A
11:00 AM70 °FRain. Overcast.8 mph88%30.07 "HgN/A
Weather by CustomWeather, © 2015

See weather overviewHow to use our weather pages